www.pogodaiklimat.ru

Погода и климат >> Архив погоды >> Малайзия >> Кота-Кинабалу


ПОГОДА в Кота-Кинабалу

  • Прогноз погоды в Кота-Кинабалу
  • Монитор погоды в Кота-Кинабалу

АРХИВ ПОГОДЫ в Кота-Кинабалу

Время (UTC), дата Ветер
(напр.,м/с)
 
Видим.   Явления Облачность Т
(С)
Тd
(С)
f
(%)
Тe
(С)
Тes
(С)
Комфортность P
(гПа)
Po
(гПа)
Тmin
(С)
Tmax
(С)
R
(мм)
R24
(мм)
S
(см)
09 13.02 С 4 25 км 9/1 450 м
[Cu Sc Ac trans Ci sp]
+29.1 +23.4 71 +39 +40 очень
душно
1012.1 1011.8
12 13.02 С 3 18 км 9/1 420 м
[Cu Sc Ac trans Ci sp]
+27.2 +23.3 79 +37 +37 очень
душно
1013.3 1013.0 +31.9
15 13.02 В 3 18 км 9/1 420 м
[Cu Sc Ac trans Ci sp]
+25.6 +22.9 85 +34 +34 очень
душно
1014.2 1013.9
18 13.02 В 1 18 км 9/1 450 м
[Cu Sc Ac lent Cs]
+23.5 +21.7 90 +30 +30 очень
душно
1013.0 1012.7
21 13.02 ЮВ 1 18 км 9/1 450 м
[Cu Sc Ac trans Ci sp]
+22.1 +20.4 90 +28 +28 душно 1012.6 1012.3
00 14.02 В 1 24 км 8/1 50 м
[Cu Sc Ac trans Ci sp]
+26.6 +22.7 79 +35 +37 очень
душно
1013.9 1013.6 +21.4
03 14.02 СЗ 2 28 км 6/1 480 м
[Cu Sc Ac trans Ci fib]
+29.8 +23.4 69 +40 +52 опасность
солнечного
удара
1013.6 1013.3
06 14.02 СЗ 3 26 км 6/1 480 м
[Cu Sc Ac trans Ci sp]
+32.3 +22.7 57 +42 +51 опасность
перегрева
1010.5 1010.2
09 14.02 С 3 26 км 6/1 450 м
[Cu Sc Ac trans Ci sp]
+31.3 +22.6 60 +41 +42 опасность
перегрева
1009.2 1008.9
12 14.02 С 2 18 км 9/1 450 м
[Cu Sc Ac lent Ci sp]
+28.3 +23.5 75 +38 +38 очень
душно
1010.9 1010.6 +33.0
15 14.02 В 2 18 км 9/1 450 м
[Cu Sc Ac lent Ci sp]
+25.9 +21.2 75 +33 +33 очень
душно
1012.4 1012.1
18 14.02 В 1 18 км 9/1 450 м
[Cu Sc Ac trans Ci sp]
+24.1 +20.9 82 +30 +30 очень
душно
1011.7 1011.4
21 14.02 ЮВ 2 18 км 9/1 450 м
[Cu Sc Ac trans Ci sp]
+22.7 +19.7 83 +29 +29 очень
душно
1011.7 1011.4
00 15.02 В 1 25 км 8/1 50 м
[Cu Sc Ac lent Ci sp]
+26.9 +20.6 68 +33 +36 очень
душно
1013.9 1013.6 +22.0
03 15.02 СЗ 3 25 км 6/1 450 м
[Cu Sc Ac lent Ci sp]
+30.6 +24.1 68 +42 +53 опасность
перегрева
1013.4 1013.1
06 15.02 С 4 28 км 6/1 450 м
[Cu Sc Ac trans Ci sp]
+33.3 +23.7 57 +44 +52 опасность
перегрева
1009.8 1009.5
09 15.02 С 3 26 км 8/1 450 м
[Cb cap Ac trans Ci sp]
+30.6 +23.2 65 +41 +42 опасность
перегрева
1009.2 1008.9
12 15.02 штиль 0 18 км 9/1 450 м
[Cu Sc Ac trans Ci sp]
+27.6 +23.6 79 +38 +38 очень
душно
1011.0 1010.7 +33.6
15 15.02 штиль 0 18 км 9/1 420 м
[Cu Sc Ac trans Ci sp]
+25.5 +20.9 76 +32 +32 очень
душно
1012.5 1012.2
18 15.02 ЮВ 2 18 км 9/1 420 м
[Cu Sc Ac trans Ci sp]
+23.1 +19.0 78 +29 +29 очень
душно
1011.9 1011.6
21 15.02 ЮВ 2 18 км 9/1 420 м
[Cu Sc Ac trans Ci sp]
+22.5 +18.0 76 +28 +28 душно 1012.4 1012.1
00 16.02 В 3 24 км 8/1 50 м
[Cu Sc Ac trans Ci sp]
+26.4 +19.0 64 +32 +33 очень
душно
1014.2 1013.9 +22.2
03 16.02 З 2 20 км мгла 8/1 450 м
[Cu Sc Ac trans Ci sp]
+30.7 +24.5 70 +43 +53 опасность
перегрева
1014.3 1014.0
06 16.02 СЗ 4 20 км мгла 6/1 450 м
[Cu Sc Ac trans Ci sp]
+30.6 +24.8 71 +43 +51 опасность
перегрева
1011.5 1011.2
09 16.02 СЗ 3 22 км мгла 6/1 450 м
[Cu Sc Ac trans Ci sp]
+29.3 +25.6 81 +43 +45 опасность
перегрева
1010.2 1009.9
12 16.02 ЮЗ 1 18 км 9/1 450 м
[Cu Sc Ac trans Ci sp]
+27.4 +25.1 87 +39 +39 очень
душно
1011.5 1011.2 +31.5
15 16.02 Ю 3 18 км 9/1 450 м
[Cu Sc Ac lent Ci sp]
+26.4 +22.9 81 +35 +35 очень
душно
1012.5 1012.2
18 16.02 В 1 18 км 9/3 450 м
[Cu Sc Ac lent Ci sp]
+24.7 +22.5 88 +32 +32 очень
душно
1011.3 1011.0
21 16.02 В 1 18 км 9/1 450 м
[Cu Sc Ac lent Ci sp]
+24.3 +22.7 91 +32 +32 очень
душно
1011.4 1011.1
00 17.02 В 2 24 км 9/1 50 м
[Cu Sc Ac lent Ci sp]
+26.5 +22.7 80 +35 +37 очень
душно
1013.3 1013.0 +23.9
03 17.02 СЗ 2 22 км мгла 6/1 450 м
[Cu Sc Ac trans Ci sp]
+31.2 +25.2 70 +45 +56 опасность
перегрева
1013.2 1012.9
06 17.02 СЗ 4 25 км 8/3 420 м
[Cu Sc Ac trans Ci sp]
+30.8 +25.3 73 +45 +50 опасность
перегрева
1011.0 1010.7
09 17.02 С 2 25 км 9/3 420 м
[Cu Sc Ac trans Ci sp]
+30.8 +24.3 68 +43 +44 опасность
перегрева
1009.8 1009.5
12 17.02 штиль 0 18 км 9/3 420 м
[Cu Sc Ac lent Cs]
+28.6 +24.7 79 +41 +41 опасность
перегрева
1011.5 1011.2 +31.4
15 17.02 ЮЗ 3 18 км 9/3 420 м
[Cu Sc Ac lent Cs]
+27.3 +24.3 84 +38 +38 очень
душно
1012.6 1012.3
18 17.02 Ю 2 18 км 9/3 450 м
[Cu Sc Ac lent Cs]
+26.0 +23.8 88 +36 +36 очень
душно
1010.8 1010.5
21 17.02 В 2 18 км 9/3 450 м
[Cu Sc Ac lent Cs]
+25.5 +22.7 85 +34 +34 очень
душно
1011.3 1011.0
00 18.02 В 2 25 км 9/3 50 м
[Cu Sc Ac lent Cs]
+28.9 +23.3 72 +39 +41 очень
душно
1013.4 1013.1 +24.8
03 18.02 СЗ 3 20 км мгла 9/3 420 м
[Cu Sc Ac lent Cs]
+30.9 +25.3 72 +45 +51 опасность
перегрева
1014.5 1014.2
06 18.02 СЗ 5 15 км осадки на расстоянии 9/5 420 м
[Cb cap Ac lent Cs]
+30.6 +26.1 77 +46 +49 опасность
перегрева
1012.3 1012.0
09 18.02 В 4 8000 м слаб. дождь 9/5 400 м
[Cu Sc Ac lent Cs]
+24.1 +23.6 97 +33 +33 очень
душно
1012.2 1011.9
12 18.02 В 1 18 км 9/3 420 м
[Cu Sc Ac lent Cs]
+25.4 +24.6 95 +36 +36 очень
душно
1013.4 1013.1 +32.1 19
15 18.02 В 2 18 км 9/3 420 м
[Cu Sc Ac lent Cs]
+24.4 +23.3 94 +33 +33 очень
душно
1014.6 1014.3
18 18.02 В 1 18 км 9/1 420 м
[Cu Sc Ac lent Ci sp]
+24.1 +23.2 95 +32 +32 очень
душно
1013.2 1012.9
21 18.02 В 2 18 км 9/1 420 м
[Cu Sc Ac lent Ci sp]
+24.3 +23.0 92 +32 +32 очень
душно
1012.3 1012.0
00 19.02 СВ 2 25 км 9/1 420 м
[Cu Sc Ac lent Cs]
+25.7 +23.2 86 +34 +36 очень
душно
1013.7 1013.4 +23.9 19
03 19.02 СЗ 2 25 км 9/1 420 м
[Cu Sc Ac lent Ci sp]
+30.2 +24.8 73 +43 +53 опасность
перегрева
1014.3 1014.0
06 19.02 СЗ 4 15 км осадки на расстоянии 8/3 450 м
[Cb cap Ac trans Ci sp]
+31.3 +26.0 74 +47 +52 опасность
перегрева
1011.4 1011.1
09 19.02 С 2 25 км 8/3 450 м
[Cu Sc Ac lent Ci sp]
+31.9 +24.8 66 +45 +46 опасность
перегрева
1010.1 1009.8
12 19.02 З 1 18 км 9/1 450 м
[Cu Sc Ac lent Ci sp]
+29.2 +26.6 86 +45 +45 опасность
перегрева
1011.8 1011.5 +32.6
15 19.02 ЮВ 2 18 км 9/1 450 м
[Cu Sc Ac lent Ci sp]
+27.2 +25.0 88 +39 +39 очень
душно
1013.1 1012.8
18 19.02 ЮВ 2 18 км 9/1 450 м
[Cu Sc Ac lent Ci sp]
+26.0 +24.2 90 +36 +36 очень
душно
1012.3 1012.0
21 19.02 В 2 18 км 9/1 450 м
[Cu Sc Ac trans Ci sp]
+24.8 +23.3 91 +33 +33 очень
душно
1012.2 1011.9
00 20.02 В 2 24 км 9/1 450 м
[Cu Sc Ac trans Ci sp]
+27.2 +23.5 80 +37 +39 очень
душно
1013.8 1013.5 +24.6
03 20.02 СЗ 3 25 км 8/1 450 м
[Cu Sc Ac trans Ci sp]
+30.9 +26.2 76 +47 +56 опасность
перегрева
1014.2 1013.9

 

Местоположение метеостанции Кота-Кинабалу (Малайзия): широта 5.93 долгота 116.05 высота над уровнем моря 3 м.

В архиве по умолчанию представлена погода в Кота-Кинабалу за последнюю неделю. Архивные данные за месяц целиком и за предыдущие месяцы, начиная с января 2011 года, Вы можете получить, выбрав интересующий диапазон дат из раскрывающегося списка и нажав кнопку "Ввод!".


*Определитесь, кто Вы:
робот инопланетянин человек

Внимание! Время в таблицах - всемирное. Для получения местного времени необходимо прибавить поправку, которая равна 8 ч.

Смотрите также архив погоды в соседних городах и на ближайших метеорологических станциях:

Погода в Лабуане (Малайзия) (113 км)
Погода в Бруней аэропорту (Бруней) (167 км)
Погода в Сандакане (Малайзия) (222 км)
Погода в Лонгбаване (Индонезия) (248 км)
Погода в Тавау (Малайзия) (274 км)
Погода в Мири (Малайзия) (290 км)
Погода в Таракане (Индонезия) (334 км)
Погода в Танджунгселоре (Индонезия) (371 км)
Погода в Танджунгредепе (Индонезия) (451 км)
Погода в Бинталу (Малайзия) (452 км)

Пояснения к столбцам:

Ветер - указаны скорость ветра в м/с - средняя за 10 мин, порывы в срок и между сроками (в фигурных скобках) и направление, откуда дует ветер: С - северный, СВ - северо-восточный, В - восточный, ЮВ - юго-восточный, Ю - южный, ЮЗ - юго-западный, З - западный, СЗ - северо-западный.
Видимость - горизонтальная дальность видимости в метрах или километрах. При видимости от 1 до 10 км при отсутствии осадков обычно наблюдается дымка, при ухудшении видимости до 1 км и менее - туман. В сухую погоду видимость может ухудшаться дымом, пылью или мглою.
Явления - указаны атмосферные явления, наблюдавшиеся в срок или в последний час перед сроком; фигурными скобками обозначены явления, наблюдавшиеся между сроками (за 1-3 часа до срока); квадратными скобками обозначены град или гололедные отложения с указанием их диаметра в мм.
Облачность - указаны через наклонную черту общая и нижняя облачность в баллах и высота нижней границы облаков в метрах; квадратными скобками обозначены формы облаков: Ci - перистые, Cs - перисто-слоистые, Cc - перисто-кучевые, Ac - высококучевые, As - высокослоистые, Sc - слоисто-кучевые, Ns - слоисто-дождевые, Cu - кучевые, Cb - кучево-дождевые. Подробнее классификацию облаков см. в Атласе облаков (PDF).
T - Температура воздуха - температура, измеренная на высоте 2 м над землей.
Td - Температура точки росы - температура, при понижении до которой содержащийся в воздухе водяной пар достигнет насыщения.
f - Относительная влажность воздуха - влажноcть воздуха, измеренная на высоте 2 м над землей.
Te - Эффективная температура - температура, которую ощущает одетый по сезону человек в тени. Характеристика душности погоды. При расчете учитывается влияние влажности воздуха и скорости ветра на теплоощущения человека.
Tes - Эффективная температура на солнце - температура, которую ощущает человек, с поправкой на солнечный нагрев. Характеристика знойности погоды. Зависит от высоты солнца над горизонтом, облачности и скорости ветра. Ночью, в пасмурную погоду, а также при ветре 12 м/с и более поправка равна нулю.
P - Атмосферное давление - приведенное к уровню моря атмосферное давление.
Po - Атмосферное давление - измеренное на уровне метеостанции атмосферное давление.
Tmin - Минимальная температура - минимум температуры воздуха на высоте 2 м над землей.
Tmax - Максимальная температура - максимум температуры воздуха на высоте 2 м над землей.
R - Количество осадков - Количество выпавших осадков за период времени, мм. При наведении курсора мыши на число - период времени, за который выпало указанное количество осадков.
R24 - Количество осадков - Количество выпавших осадков за 24 часа, мм.
S - Снежный покров - Высота снежного покрова, см. При наведении курсора мыши на число - состояние снежного покрова и степень покрытия местности в баллах.